Weather in Inogoshcha

Russia / Novgorod Oblast     58°18′20″N   33°30′12″E
temp.,
°C
wind,
m/s
gust,
m/s
humid.,
%
clouds,
%
prec.,
mm/h
press.,
hPa
HPBL,
m
3 march, wed
wed300:00−3nw411911 0.0 1017471
03:00−3wnw4109610 0.0 1018402
06:00−1wnw51091100 0.1 1016799
09:00−2w51091100 0.1 1016687
12:00−1w61089100 0.0 1015663
15:00−1w61187100 0.1 1012798
18:00+1w61382100 0.0 10091112
21:000w61497100 0.3 1006983
4 march, thu
thu400:00+1w71496100 0.6 10021013
03:000wnw81490100 1.1 10021053
06:00−4wnw5129161 0.1 1001671
09:00−4wnw498764 0.1 1002635
12:00−2nw367793 0.0 1002792
15:00−1nw357096 0.1 10021056
18:00−4nw228685 0.2 100258
21:00−5nw129589 0.3 100322
5 march, fri
fri500:00−6nnw379094 0.9 1003515
03:00−7nw489297 1.1 1005624
06:00−8nw4892100 0.1 1006562
09:00−7nw4786100 0.3 1008713
12:00−6nw4575100 0.1 1009911
15:00−5wnw4676100 0.3 1010918
18:00−7nw3789100 0.3 1012661
21:00−9n3790100 0.4 1015602
6 march, sat
sat600:00−11nnw249776 0.0 1016139
03:00−12wnw229558 0.0 101761
06:00−12w259236 0.0 1017142
09:00−10w379053 0.0 1017349
12:00−7w467899 0.1 1016851
15:00−5w4770100 0.1 10141077
18:00−6sw41080100 0.0 10111021
21:00−6sw71590100 0.4 10061100
7 march, sun
sun700:00−4sw81790100 1.1 9991377
03:00−3wsw81891100 2.9 9931290
06:00−2wsw81794100 2.6 9901416
09:00−9w5136183 3.3 9921404
12:00−8w259064 0.9 992531
15:00−7wnw6118475 1.5 9911357
18:00−8w4989100 0.8 992959
21:00−9n4989100 1.3 995732